DMSP 5D-2 F13 DEB, 42261

Orbit data source: Space-Track

DMSP 5D-2 F13 DEB, 42261 is space debris in SSO originally from a launch on Fri, 24 Mar 1995 UTC launched from the Air Force Western Test Range (AFWTR). Debris objects in space refer to the collection of defunct objects orbiting the Earth. Examples of debris include non-operational satellites, rocket bodies, and fragments generated from explosions, collisions, or faulty payload assembly.

Loading next visibility...
Identifier
42261, 1995-015GB
Orbit
SSO
Country
Flag of USUS
Related business
Manufacturer
Unknown
Mission
Spacecraft
Bus & Motor
Unknown
Mass
Unknown
Launch date (UTC)
1995-03-24 (31 years ago)
Launch vehicle
Unknown
Launch site
Air Force Western Test Range (AFWTR)
Object type
Payload
Rocket body
Debris
Shape & HBR
Unknown shape, 0.1 m
Radar Cross Section
Small (<0.1 m²)

Expand to show TLE details & history
Last TLE update: 1 week ago

TLE from 1 week ago
0 DMSP 5D-2 F13 DEB
1 42261U 95015GB  26163.83388231  .00000692  00000-0  22606-3 0  9995
2 42261  98.3125 199.2674 0084421   2.9536 357.2134 14.39574911565417
Epoch: 2026-06-12T20:00Z
TLE epoch observation values (Epoch: 2026-06-12T20:00:47.431Z)
Latitude
-0.00001°
Longitude
-2.08787°
Altitude
702.657 km
Speed
7.536 km/s
True Right ascension
13h 17m 04s
True Declination
0° 00' 00"
Sunlit
Object was in partial shadow at epoch
Visualization orbit readout
Latitude
Unknown
Longitude
Unknown
Altitude
Unknown
Speed
Unknown
Apparent Right ascension
Unknown
Apparent Declination
Unknown
Sunlit
N/A
Visualization observer readout
Local Sidereal Time
21:46:57
Azimuth
Unknown
Elevation
Unknown
Doppler factor
Unknown
Orbital elements
Apogee altitude
817.252 km
Perigee altitude
696.781 km
Semi-major axis
7,135.154 km
Eccentricity
0.00844
Inclination
98.3125°
RAAN
199.2674°
Arg. of periapsis
2.9536°
True anomaly
357.16587°
Mean anomaly
357.2134°
Eccentric anomaly
357.18968°
Mean motion
3.60112 °/min
Orbital period
99.97 mins
BSTAR
0.00022606

Documentation

Showing up to 5 results
|